sat.trackr.live / text

‹ back to catalog

IRIDIUM 165

NORAD 43572 · 2018-061D

PAYLOAD ACTIVE UNKNOWN

§ Identity

Operator
Country
US
Launch date
2018-07-25
Launch site
AFWTR
Launch vehicle
Mass (kg)
RCS (m²)

Purposes: comms

External: N2YO · Heavens-Above · Gunter

§ Orbital elements

Epoch: 2026-05-25T01:20:18.426048Z

Period
100.40 min
Inclination
86.3969°
Eccentricity
0.0002127
Mean motion
14.34217911 rev/d
Perigee alt
776.1 km
Apogee alt
779.2 km
Semi-major
7,155.8 km
B*
6.6763e-6
RAAN
66.4736°
Arg perigee
82.1846°
Mean anomaly
277.9591°
Rev number
41,007

§ Raw data

IRIDIUM 1651 43572U 18061D   26145.05576882  .00000038  00000+0  66763-5 0  99992 43572  86.3969  66.4736 0002127  82.1846 277.9591 14.34217911410072

JSON: /api/v1/satellites/43572 · /tle

For live sub-satellite position, see the globe view (requires WebGL).

§ Visibility from observer

Set your observer location to see the next 7 days of passes ≥ 10°. The values pass through the URL so the page stays shareable.

No JS? Fill the form by hand. The geolocation button needs JavaScript.